Location: Boquerón
(10.0687°N, 67.9212°W)
Time: 09:45:18
(UTC+00:00)

Cosmos 1076 Rocket - Pass Details

Date: 29 May 2024
Orbit: 585 x 608 km, 82.5° (Epoch: 16 June)

Event Time Altitude Azimuth Distance (km) Brightness Sun altitude
Rises 23:05:00 0° 0° (N) 2,820 7.3 -4.4°
Reaches altitude 10° 23:07:12 10° 3° (N) 1,923 6.4 -4.9°
Maximum altitude 23:11:25 67° 86° (E) 650 3.5 -5.9°
Drops below altitude 10° 23:15:41 10° 168° (SSE) 1,939 5.8 -6.8°
Sets 23:17:54 0° 171° (S) 2,845 6.6 -7.3°
